Weather reports worldwide

Advertisment
Hyeres, France (7667): temperature & dewpoint: 17.04.2019 18:00:00 - 23.04.2019 18:00:00 (CEST)Hyeres, France (7667): temperature 5cm: 17.04.2019 18:00:00 - 23.04.2019 18:00:00 (CEST)Hyeres, France (7667): wind speed & gusts: 17.04.2019 18:00:00 - 23.04.2019 18:00:00 (CEST)Hyeres, France (7667): wind direction: 17.04.2019 18:00:00 - 23.04.2019 18:00:00 (CEST)Hyeres, France (7667): reduced air pressure: 17.04.2019 18:00:00 - 23.04.2019 18:00:00 (CEST)Hyeres, France (7667): visibility: 17.04.2019 18:00:00 - 23.04.2019 18:00:00 (CEST)Hyeres, France (7667): precipitation: 17.04.2019 18:00:00 - 23.04.2019 18:00:00 (CEST)
Date & Time tt [°C] td [°C] tt 5cm [°C] ff [km/h] ff [kn] fx [km/h] fx [kn] dd ppp [hPa] vv [km] rr [mm]
23.04.2019 18:00:00 15,0 12,7 14,4 21 11 32 17 E 1001,3 20 0,0
23.04.2019 17:00:00 16,1 13,0 15,7 17 9 35 19 ENE 1000,5 60 0,0
23.04.2019 16:00:00 16,2 12,7 15,7 22 12 39 21 ENE 1000,1 59 0,0
23.04.2019 15:00:00 15,3 12,4 14,2 22 12 43 23 ENE 999,9 51 0,0
23.04.2019 14:00:00 14,5 12,7 14,1 28 15 51 27 E 999,9 17 0,0
23.04.2019 13:00:00 15,3 12,4 15,1 32 17 55 30 E 999,7 20 0,0
23.04.2019 12:00:00 15,2 12,5 14,1 35 19 56 30 E 999,6 19 0,0
23.04.2019 11:00:00 14,9 12,4 13,5 30 16 57 31 E 999,2 16 0,0
23.04.2019 10:00:00 14,5 12,0 12,5 28 15 48 26 E 999,0 20 1,2
23.04.2019 09:00:00 13,9 12,1 12,4 28 15 49 26 E 998,7 5 1,2
23.04.2019 08:00:00 14,8 11,4 12,6 24 13 46 25 ENE 998,2 19 0,0
23.04.2019 07:00:00 15,4 9,7 14,2 24 13 42 23 ENE 997,9 60 0,0
23.04.2019 06:00:00 15,6 9,3 13,8 26 14 50 27 ENE 997,9 60 0,0
23.04.2019 05:00:00 15,5 8,9 13,6 26 14 46 25 ENE 998,7 20 0,0
23.04.2019 04:00:00 15,5 8,7 13,1 29 16 56 30 ENE 999,1 60 0,0
23.04.2019 03:00:00 15,2 8,9 14,0 22 12 59 32 ENE 999,3 60 0,0
23.04.2019 02:00:00 15,9 8,9 14,1 35 19 61 33 ENE 1000,1 58 0,0
23.04.2019 01:00:00 16,9 9,3 14,1 33 18 68 37 ENE 1000,3 47 0,0
23.04.2019 00:00:00 17,3 9,2 15,3 44 24 74 40 E 1000,3 45 0,0
22.04.2019 23:00:00 17,3 9,2 16,1 41 22 78 42 ENE 1001,1 32 0,0
22.04.2019 22:00:00 18,1 8,4 16,3 42 23 84 46 E 1001,2 36 0,0
22.04.2019 21:00:00 18,2 7,6 16,3 42 23 83 45 E 1000,7 34 0,0
22.04.2019 20:00:00 18,2 6,7 16,5 45 24 91 49 ENE 1000,4 37 0,0
22.04.2019 19:00:00 18,2 7,3 16,7 41 22 90 49 ENE 1000,5 20 0,0
22.04.2019 18:00:00 19,1 6,9 18,4 48 26 93 50 E 1000,5 20 0,0
22.04.2019 17:00:00 19,7 6,4 19,0 48 26 104 56 ENE 1000,7 19 0,0
22.04.2019 16:00:00 19,8 7,5 19,8 51 27 85 46 E 1001,0 18 0,0
22.04.2019 15:00:00 21,0 7,6 20,8 48 26 81 44 E 1001,6 18 0,0
22.04.2019 14:00:00 20,7 6,6 22,7 50 27 86 47 E 1001,5 18 0,0
22.04.2019 13:00:00 21,1 5,4 22,4 54 29 90 48 E 1002,3 17 0,0
22.04.2019 12:00:00 20,9 5,7 22,3 54 29 85 46 E 1002,8 18 0,0
22.04.2019 11:00:00 21,1 4,6 21,5 49 26 82 44 E 1003,0 18 0,0
22.04.2019 10:00:00 21,2 4,7 19,5 49 26 76 41 E 1002,7 19 0,0
22.04.2019 09:00:00 19,9 5,2 18,1 46 25 86 46 E 1003,2 19 0,0
22.04.2019 08:00:00 19,4 5,1 16,8 44 24 77 42 E 1003,4 28 0,0
22.04.2019 07:00:00 18,6 6,1 16,3 45 25 78 42 E 1004,2 33 0,0
22.04.2019 06:00:00 18,4 7,5 16,5 43 23 78 42 E 1004,6 20 0,0
22.04.2019 05:00:00 18,2 7,9 16,1 44 24 75 40 E 1005,2 32 0,0
22.04.2019 04:00:00 18,0 8,3 15,6 38 21 67 36 E 1006,1 32 0,0
22.04.2019 03:00:00 17,9 8,2 15,9 33 18 61 33 E 1007,3 32 0,0
22.04.2019 02:00:00 18,3 7,1 16,2 36 19 65 35 E 1008,3 38 0,0
22.04.2019 01:00:00 18,4 6,6 16,1 37 20 70 38 E 1009,3 38 0,0
22.04.2019 00:00:00 17,9 6,7 15,8 42 23 72 39 E 1010,1 37 0,0
21.04.2019 23:00:00 18,3 6,5 16,5 35 19 69 38 E 1010,3 38 0,0
21.04.2019 22:00:00 18,6 5,1 16,3 36 19 64 35 E 1010,9 45 0,0
21.04.2019 21:00:00 18,7 4,8 16,6 34 18 59 32 ENE 1011,0 48 0,0
21.04.2019 20:00:00 18,6 5,1 17,1 29 16 58 32 ENE 1011,1 46 0,0
21.04.2019 19:00:00 18,9 5,0 18,0 36 19 64 35 E 1011,8 20 0,0
21.04.2019 18:00:00 19,1 6,2 18,7 37 20 61 33 E 1012,6 44 0,0
21.04.2019 17:00:00 19,5 6,6 19,8 39 21 61 33 E 1013,2 59 0,0
21.04.2019 16:00:00 19,3 6,7 18,6 34 19 56 30 E 1013,7 60 0,0
21.04.2019 15:00:00 19,0 7,1 17,8 31 17 52 28 E 1014,2 55 0,0
21.04.2019 14:00:00 19,2 6,6 17,9 29 16 56 30 E 1014,7 60 0,0
21.04.2019 13:00:00 18,8 6,9 17,5 32 17 58 31 E 1015,4 60 0,0
21.04.2019 12:00:00 18,7 6,8 17,4 35 19 58 31 E 1015,8 54 0,0
21.04.2019 11:00:00 18,2 6,7 16,9 35 19 64 35 E 1016,2 38 0,0
21.04.2019 10:00:00 18,3 7,4 17,1 37 20 66 36 E 1016,0 33 0,0
21.04.2019 09:00:00 18,8 6,9 17,0 27 14 47 25 E 1016,0 48 0,0
21.04.2019 08:00:00 18,5 7,3 16,6 27 14 45 25 E 1016,2 46 0,0
21.04.2019 07:00:00 18,4 7,2 16,4 26 14 47 26 E 1016,2 39 0,0
21.04.2019 06:00:00 19,1 6,2 15,7 22 12 43 23 ENE 1016,3 51 0,0
21.04.2019 05:00:00 18,1 7,2 15,8 9 5 42 23 ENE 1017,0 52 0,0
21.04.2019 04:00:00 17,3 8,7 15,5 22 12 51 27 E 1017,8 33 0,0
21.04.2019 03:00:00 17,8 7,8 15,7 29 15 47 25 E 1018,4 36 0,0
21.04.2019 02:00:00 17,7 8,3 14,6 23 13 44 24 ENE 1019,4 42 0,0
21.04.2019 01:00:00 17,4 9,3 15,3 13 7 32 17 E 1019,8 44 0,0
21.04.2019 00:00:00 18,6 7,1 16,0 16 9 32 17 ENE 1019,7 50 0,0
20.04.2019 23:00:00 18,2 6,4 15,6 15 8 28 15 NE 1020,0 49 0,0
20.04.2019 22:00:00 18,5 5,0 15,4 19 11 31 17 NE 1020,0 54 0,0
20.04.2019 21:00:00 17,6 5,5 15,5 16 8 27 15 NE 1020,1 51 0,0
20.04.2019 20:00:00 18,1 4,3 15,7 14 7 35 19 NE 1020,4 60 0,0
20.04.2019 19:00:00 17,9 5,1 16,1 16 9 42 23 ENE 1020,6 58 0,0
20.04.2019 18:00:00 17,6 6,8 16,8 25 13 45 24 E 1020,9 43 0,0
20.04.2019 17:00:00 18,1 6,6 17,9 29 15 59 32 E 1021,5 50 0,0
20.04.2019 16:00:00 18,6 5,1 18,4 37 20 61 33 E 1022,2 42 0,0
20.04.2019 15:00:00 18,8 6,3 20,1 32 17 63 34 E 1022,9 20 0,0
20.04.2019 14:00:00 19,5 5,9 20,9 36 20 72 39 E 1023,2 20 0,0
20.04.2019 13:00:00 20,1 7,5 23,7 27 15 45 25 E 1023,5 20 0,0
20.04.2019 12:00:00 19,7 7,7 21,4 28 15 51 28 E 1024,0 39 0,0
20.04.2019 11:00:00 19,3 6,7 20,8 27 15 41 22 E 1024,4 20 0,0
20.04.2019 10:00:00 19,2 7,3 18,9 22 12 36 19 ENE 1024,5 53 0,0
20.04.2019 09:00:00 18,0 6,8 15,0 19 11 31 17 NE 1024,5 60 0,0
20.04.2019 08:00:00 15,8 6,5 9,2 17 9 24 13 NNE 1024,7 60 0,0
20.04.2019 07:00:00 13,5 4,9 8,8 13 7 23 12 NE 1024,4 58 0,0
20.04.2019 06:00:00 14,5 4,8 10,1 13 7 24 13 ENE 1024,3 57 0,0
20.04.2019 05:00:00 14,3 6,1 5,5 13 7 22 12 ENE 1024,6 51 0,0
20.04.2019 04:00:00 10,4 5,4 6,1 8 5 14 8 N 1024,6 42 0,0
20.04.2019 03:00:00 12,6 5,5 5,8 11 6 14 7 N 1024,8 50 0,0
20.04.2019 02:00:00 13,3 5,4 7,7 10 5 17 9 N 1025,2 48 0,0
20.04.2019 01:00:00 11,9 5,5 6,6 13 7 18 10 N 1025,5 43 0,0
20.04.2019 00:00:00 12,1 5,9 6,5 11 6 16 9 N 1026,0 42 0,0
19.04.2019 23:00:00 12,6 5,7 7,0 8 4 16 8 N 1026,3 45 0,0
19.04.2019 22:00:00 14,2 6,3 8,5 10 6 14 8 NNE 1026,5 55 0,0
19.04.2019 21:00:00 15,5 7,0 10,8 8 4 24 13 NE 1026,2 53 0,0
19.04.2019 20:00:00 17,0 7,1 14,7 16 9 33 18 E 1025,8 50 0,0
19.04.2019 19:00:00 17,6 8,7 17,3 19 10 35 19 ENE 1025,7 48 0,0
19.04.2019 18:00:00 18,8 8,2 20,1 24 13 42 23 E 1025,7 26 0,0
19.04.2019 17:00:00 19,1 8,4 21,7 28 15 48 26 E 1025,9 20 0,0
19.04.2019 16:00:00 19,3 8,0 22,7 29 16 54 29 E 1026,0 22 0,0
19.04.2019 15:00:00 19,3 7,7 23,5 35 19 55 30 E 1026,3 23 0,0
19.04.2019 14:00:00 19,9 7,9 23,5 33 18 63 34 E 1026,1 25 0,0
19.04.2019 13:00:00 19,5 7,2 21,8 38 20 64 35 E 1026,2 19 0,0
19.04.2019 12:00:00 19,1 6,2 20,2 41 22 67 36 E 1026,1 20 0,0
19.04.2019 11:00:00 19,3 7,4 19,2 39 21 61 33 E 1026,0 19 0,0
19.04.2019 10:00:00 18,8 6,9 16,8 32 17 55 30 E 1025,5 20 0,0
19.04.2019 09:00:00 17,5 6,1 15,6 34 18 55 30 E 1024,9 58 0,0
19.04.2019 08:00:00 16,7 6,5 12,3 21 11 40 22 ENE 1024,6 42 0,0
19.04.2019 07:00:00 14,6 7,6 11,7 14 7 31 17 NE 1024,0 42 0,0
19.04.2019 06:00:00 14,5 6,8 11,5 12 6 37 20 NE 1023,4 47 0,0
19.04.2019 05:00:00 16,7 7,6 15,1 20 11 50 27 ENE 1023,3 43 0,0
19.04.2019 04:00:00 17,5 7,2 15,9 28 15 48 26 E 1023,1 45 0,0
19.04.2019 03:00:00 17,8 7,2 16,1 24 13 48 26 E 1022,8 41 0,0
19.04.2019 02:00:00 17,9 6,4 15,0 24 13 42 23 ENE 1022,4 39 0,0
19.04.2019 01:00:00 17,2 6,1 12,4 11 6 22 12 NE 1022,6 42 0,0
19.04.2019 00:00:00 15,9 5,5 13,4 16 8 26 14 NNE 1022,3 45 0,0
18.04.2019 23:00:00 16,3 5,3 11,2 18 10 25 14 NNE 1022,0 46 0,0
18.04.2019 22:00:00 14,7 4,9 9,1 12 7 17 9 NNE 1021,7 45 0,0
18.04.2019 21:00:00 16,6 4,3 12,5 8 4 38 21 NE 1021,2 51 0,0
18.04.2019 20:00:00 17,8 4,7 15,9 18 10 34 18 ENE 1021,1 48 0,0
18.04.2019 19:00:00 18,4 5,2 18,1 24 13 39 21 ENE 1020,7 48 0,0
18.04.2019 18:00:00 18,9 7,0 19,7 22 12 35 19 E 1020,6 32 0,0
18.04.2019 17:00:00 19,6 7,7 21,1 23 13 42 23 E 1020,5 20 0,0
18.04.2019 16:00:00 19,1 9,0 22,3 22 12 35 19 E 1020,9 19 0,0
18.04.2019 15:00:00 18,4 10,5 21,3 22 12 36 19 ESE 1021,2 19 0,0
18.04.2019 14:00:00 18,0 12,0 23,3 24 13 39 21 ESE 1021,6 18 0,0
18.04.2019 13:00:00 18,9 10,7 22,7 28 15 49 26 E 1021,4 18 0,0
18.04.2019 12:00:00 18,9 9,4 22,9 26 14 43 23 E 1021,4 19 0,0
18.04.2019 11:00:00 18,2 9,3 21,0 19 10 36 19 E 1021,6 49 0,0
18.04.2019 10:00:00 17,3 9,0 19,3 9 5 16 9 ENE 1021,3 18 0,0
18.04.2019 09:00:00 14,9 7,7 11,4 4 2 8 4 NNW 1021,8 20 0,0
18.04.2019 08:00:00 9,8 7,9 4,6 0 0 9 5 N 1021,2 20 0,0
18.04.2019 07:00:00 6,4 5,2 3,9 6 3 9 5 NNE 1020,5 34 0,0
18.04.2019 06:00:00 7,1 5,7 4,0 7 4 11 6 N 1020,2 37 0,0
18.04.2019 05:00:00 7,0 5,8 4,5 10 5 11 6 NNE 1020,2 28 0,0
18.04.2019 04:00:00 7,2 5,5 4,6 5 3 8 5 N 1020,8 30 0,0
18.04.2019 03:00:00 8,5 6,5 4,7 3 1 8 4 N 1021,2 45 0,0
18.04.2019 02:00:00 8,9 7,7 4,6 4 2 9 5 N 1021,6 18 0,0
18.04.2019 01:00:00 9,2 8,0 5,3 4 2 10 5 N 1021,7 17 0,0
18.04.2019 00:00:00 9,6 8,4 5,8 6 3 9 5 N 1021,7 10 0,0
17.04.2019 23:00:00 11,0 9,1 6,1 2 1 7 4 NNW 1021,6 9 0,0
17.04.2019 22:00:00 12,2 9,2 6,6 0 0 4 2 N 1021,1 18 0,0
17.04.2019 21:00:00 12,9 9,0 7,8 0 0 8 4 N 1020,5 19 0,0
17.04.2019 20:00:00 13,9 9,3 12,2 6 3 13 7 E 1020,0 59 0,0
17.04.2019 19:00:00 15,1 9,7 15,1 7 4 20 11 ESE 1019,9 59 0,0
17.04.2019 18:00:00 16,0 10,1 18,2 7 4 18 10 S 1020,4 53 0,0

tt = temperature
td = dewpoint
tt 5cm = temperature 5cm
ff = wind speed
fx = gusts
dd = wind direction
ppp = reduced air pressure
vv = visibility
rr = precipitation

Next stations